Location: ???????
(55.5931°N, 39.3286°E)
Time: 05:14:05
(UTC+00:00)

S3M - Visible Passes

Search period start: 21 May 2025 00:00
Search period end: 31 May 2025 00:00
Orbit: 948 x 1004 km, 83.0° (Epoch: 20 May)

Date Brightness Start Highest point End Pass type
(mag) Time Alt. Az. Time Alt. Az. Time Alt. Az.
21 May 7.3 19:26:58 10° WNW 19:28:40 11° NW 19:30:22 10° NNW visible
23 May 6.9 18:29:16 10° W 18:33:19 18° NW 18:37:25 10° N visible
23 May 7.7 23:59:37 10° NNE 00:01:00 11° NE 00:02:23 10° NE visible
24 May 7.3 18:57:13 10° WNW 18:59:39 12° NW 19:02:04 10° NNW visible
27 May 7.2 23:55:07 10° NNE 23:58:24 14° NE 00:01:41 10° ENE visible
30 May 7.2 23:26:32 10° NNE 23:29:24 13° NE 23:32:16 10° ENE visible
